Orbital Elements at Epoch 2459000.5 (2020-May-31.0) TDB
Reference: JPL 27 (heliocentric ecliptic J2000)
Element | Value | Uncertainty (1-sigma) | Units |
e | .2448476907859116 | 4.008e-08 | |
a | 2.330971110641437 | 8.8265e-09 | au |
q | 1.760238216912209 | 9.2999e-08 | au |
i | 9.226828728678306 | 4.3131e-06 | deg |
node | 292.804636874716 | 2.4362e-05 | deg |
peri | 50.49700403456853 | 2.6058e-05 | deg |
M | 250.6784837748098 | 1.3602e-05 | deg |
tp | 2459395.236157413227 (2021-Jun-29.73615741) | 5.0893e-05 | TDB |
period | 1299.88150160707 3.56 | 7.3833e-06 2.021e-08 | d yr |
n | .2769483214854004 | 1.5731e-09 | deg/d |
Q | 2.901704004370665 | 1.0988e-08 | au |
|
| | Orbit Determination Parameters
Additional Information
|